Regional Weather Roundup
Issued by NWS Sterling, VA

Home | Current Version | Previous Version | Graphics & Text | Print | Product List | Glossary On
Versions: 1 2 3 4 5 6 7 8 9 10 11 12 13 14 15 16 17 18 19 20 21 22 23 24 25 26 27 28 29 30 31 32 33 34 35 36 37 38 39 40 41 42 43 44 45 46 47 48
000
ASUS41 KLWX 291510
RWRLWX

REGIONAL WEATHER ROUNDUP
NATIONAL WEATHER SERVICE BALTIMORE MD/WASHINGTON DC
1100 AM EDT MON SEP 29 2014

Note: "FAIR" indicates few or no clouds below 12,000 feet
with no significant weather and/or obstructions to visibility.
 TC=TEMPERATURE CELSIUS

 * =Non NWS site. Station does not report precipitation (e.g. rain,
    snow, etc.), thunder, or fog.

DCZ001-MDZ009-015-VAZ040>042-051-053>054-291600-
WASHINGTON METRO

CITY           SKY/WX    TMP DP  RH WIND       PRES   REMARKS
WASHINGTON NAT CLOUDY    70  63  78 S6        30.02R
DULLES         CLOUDY    67  62  84 NW6       30.02R
ANDREWS AFB    PTSUNNY   72  61  68 W3          N/A
QUANTICO       CLOUDY    67  61  81 CALM      30.02F
COLLEGE PARK*  CLOUDY    70  63  78 CALM      30.01R
LEESBURG*      CLOUDY    70  64  83 CALM      30.03R
MANASSAS*      SUNNY     64  64 100 SW3       30.02S
GAITHERSBURG*  CLOUDY    70  61  73 CALM      30.05S

$$

MDZ006>007-011-014-291600-
BALTIMORE METRO

CITY           SKY/WX    TMP DP  RH WIND       PRES   REMARKS
BWI AIRPORT    CLOUDY    69  62  78 CALM      30.00S
MD SCIENCE CTR   N/A     72  61  68 MISG      30.00S
MARTIN STATE   PTSUNNY   70  66  88 CALM      30.01F
ANNAPOLIS      CLOUDY    68  61  78 E3        30.00F
FORT MEADE*    CLOUDY    64  61  88 CALM      30.03S

$$

MDZ012-015-019>023-291600-
MARYLAND EASTERN SHORE

CITY           SKY/WX    TMP DP  RH WIND       PRES   REMARKS
OCEAN CITY     PTSUNNY   72  65  78 S5        30.01S
SALISBURY      FAIR      74  64  71 VRB3      30.01R
BAY BRIDGE AP*   N/A     70  61  73 SW6       30.01S
CAMBRIDGE*     CLOUDY    72  64  78 CALM      30.01S
EASTON*        PTSUNNY   72  70  94 CALM      30.04S

$$

MDZ017>025-291600-
SOUTHERN MARYLAND

CITY           SKY/WX    TMP DP  RH WIND       PRES   REMARKS
PATUXENT RIVER CLOUDY    70  62  76 SW3       30.01S
ST INIGOES     CLOUDY    71  60  68 SW6       30.01R
LEONARDTOWN*   CLOUDY    68  61  77 CALM      30.03R

$$

MDZ003>005-291600-
NORTH CENTRAL MARYLAND

CITY           SKY/WX    TMP DP  RH WIND       PRES   REMARKS
FREDERICK*     SUNNY     73  64  73 CALM      30.04S
HAGERSTOWN APT CLOUDY    68  59  73 S5        30.03S
WESTMINSTER*   CLOUDY    72  66  83 CALM      30.01S

$$

MDZ501>502-291600-
WESTERN MARYLAND

CITY           SKY/WX    TMP DP  RH WIND       PRES   REMARKS
OAKLAND*       CLOUDY    61  61 100 CALM      30.10F
CUMBERLAND*    NOT AVBL

$$

VAZ025>031-291600-
SHENANDOAH VALLEY

CITY           SKY/WX    TMP DP  RH WIND       PRES   REMARKS
WINCHESTER*    CLOUDY    66  55  68 CALM      30.03F
STAUNTON*      LGT RAIN  64  58  81 CALM      30.08R

$$

WVZ021-048>050-054>055-291600-
EASTERN WEST VIRGINIA PANHANDLE

CITY           SKY/WX    TMP DP  RH WIND       PRES   REMARKS
MARTINSBURG    CLOUDY    67  58  72 W3        30.03R
PETERSBURG*    CLOUDY    62  58  88 CALM      30.07S

$$

VAZ036>039-050-291600-
CENTRAL FOOTHILLS

CITY           SKY/WX    TMP DP  RH WIND       PRES   REMARKS
CHARLOTTESVILL LGT RAIN  63  61  93 S3        30.03S
ORANGE*        RAIN      63  61  94 CALM      30.04S

$$

VAZ055>057-291600-
NORTH AND CENTRAL PIEDMONT

CITY           SKY/WX    TMP DP  RH WIND       PRES   REMARKS
FREDERICKSBRG* CLOUDY    71  64  76 SW6       30.01S
STAFFORD*      CLOUDY    67  67  97 SW6       30.06S

$$

NCZ024-NYZ072-PAZ021-071-VAZ022-071-291600-
OTHER REGIONAL OBSERVATIONS

CITY           SKY/WX    TMP DP  RH WIND       PRES   REMARKS
NEW YORK CITY  PTSUNNY   74  57  55 CALM      30.00F
PHILADELPHIA   CLOUDY    70  62  76 SW6       30.00R
PITTSBURGH     MOSUNNY   66  59  78 SE3       30.03S
ROANOKE        LGT RAIN  65  60  84 W6        30.09R
RICHMOND       LGT RAIN  68  63  84 SW7       30.03S
RALEIGH        CLOUDY    68  60  75 NE5       30.05S

$$

ANZ530>537-291600-
MARINE OBSERVATIONS

STATION/POSITION TIME  TEMP    WIND        PRES
                       AIR SEA DIR/SP/G
                 (UTC) (F)     (DEG/KT/KT) (MB)
THOMAS PT LIGHT  1500   68 71  230/  3/  4 1017.1S
BALT KEY BRIDGE  1500   78     140/  2/  3 1015.7F
COVE POINT       1500   69     150/  2/  2 1016.2R
LEWISETTA        1500   70 71  240/  3/  3 1015.9S
SOLOMONS ISLAND  1500      72                N/A
PINEY POINT      1500          330/  5/  5   N/A

$$



USA.gov is the U.S. government's official web portal to all federal, state and local government web resources and services.